TimeMST,TemperatureF,Dew PointF,Humidity,Sea Level PressureIn,VisibilityMPH,Wind Direction,Wind SpeedMPH,Gust SpeedMPH,PrecipitationIn,Events,Conditions,WindDirDegrees,DateUTC
12:15 AM,82.4,68.0,62,29.80,10.0,Calm,Calm,-,N/A,,Clear,0,2013-08-28 07:15:00
12:35 AM,82.4,68.0,62,29.80,10.0,Calm,Calm,-,N/A,,Clear,0,2013-08-28 07:35:00
12:55 AM,80.6,69.8,70,29.80,10.0,SSE,3.5,-,N/A,,Clear,160,2013-08-28 07:55:00
1:15 AM,80.6,69.8,70,29.80,10.0,Calm,Calm,-,N/A,,Clear,0,2013-08-28 08:15:00
1:35 AM,80.6,68.0,65,29.79,10.0,WNW,3.5,-,N/A,,Clear,290,2013-08-28 08:35:00
1:55 AM,80.6,68.0,65,29.79,10.0,Calm,Calm,-,N/A,,Clear,0,2013-08-28 08:55:00
2:15 AM,78.8,69.8,74,29.80,10.0,NNE,3.5,-,N/A,,Clear,20,2013-08-28 09:15:00
2:35 AM,78.8,69.8,74,29.80,10.0,NNE,3.5,-,N/A,,Clear,30,2013-08-28 09:35:00
2:55 AM,78.8,68.0,69,29.80,10.0,East,4.6,-,N/A,,Clear,80,2013-08-28 09:55:00
3:15 AM,80.6,66.2,61,29.80,10.0,East,9.2,-,N/A,,Clear,100,2013-08-28 10:15:00
3:35 AM,78.8,66.2,65,29.80,10.0,ENE,6.9,-,N/A,,Clear,70,2013-08-28 10:35:00
3:55 AM,78.8,66.2,65,29.80,10.0,ENE,6.9,-,N/A,,Clear,70,2013-08-28 10:55:00
4:15 AM,80.6,64.4,58,29.80,10.0,East,4.6,-,N/A,,Clear,100,2013-08-28 11:15:00
4:35 AM,78.8,66.2,65,29.81,10.0,NE,4.6,-,N/A,,Clear,50,2013-08-28 11:35:00
4:55 AM,78.8,66.2,65,29.81,10.0,Calm,Calm,-,N/A,,Clear,0,2013-08-28 11:55:00
5:15 AM,78.8,64.4,61,29.81,10.0,ENE,4.6,-,N/A,,Clear,60,2013-08-28 12:15:00
5:35 AM,80.6,64.4,58,29.82,10.0,ESE,3.5,-,N/A,,Clear,120,2013-08-28 12:35:00
5:55 AM,80.6,62.6,54,29.83,10.0,East,6.9,-,N/A,,Clear,90,2013-08-28 12:55:00
6:15 AM,82.4,60.8,48,29.83,10.0,East,8.1,-,N/A,,Clear,80,2013-08-28 13:15:00
6:35 AM,82.4,60.8,48,29.85,10.0,East,8.1,-,N/A,,Clear,90,2013-08-28 13:35:00
6:55 AM,82.4,60.8,48,29.85,10.0,East,5.8,-,N/A,,Clear,100,2013-08-28 13:55:00
7:15 AM,84.2,62.6,48,29.85,10.0,East,8.1,-,N/A,,Clear,80,2013-08-28 14:15:00
7:35 AM,87.8,60.8,40,29.86,10.0,East,10.4,-,N/A,,Clear,80,2013-08-28 14:35:00
7:55 AM,89.6,60.8,38,29.87,10.0,East,11.5,-,N/A,,Clear,90,2013-08-28 14:55:00
8:15 AM,89.6,60.8,38,29.87,10.0,East,12.7,-,N/A,,Clear,80,2013-08-28 15:15:00
8:35 AM,91.4,60.8,36,29.87,10.0,East,12.7,-,N/A,,Clear,90,2013-08-28 15:35:00
8:55 AM,91.4,60.8,36,29.88,10.0,East,12.7,-,N/A,,Clear,100,2013-08-28 15:55:00
9:15 AM,93.2,60.8,34,29.89,10.0,ESE,11.5,-,N/A,,Clear,120,2013-08-28 16:15:00
9:35 AM,93.2,62.6,36,29.89,10.0,SE,11.5,-,N/A,,Clear,140,2013-08-28 16:35:00
9:55 AM,93.2,62.6,36,29.89,10.0,SE,6.9,-,N/A,,Clear,140,2013-08-28 16:55:00
10:15 AM,93.2,62.6,36,29.89,10.0,SE,8.1,-,N/A,,Clear,140,2013-08-28 17:15:00
10:35 AM,95.0,60.8,32,29.89,10.0,ESE,8.1,-,N/A,,Clear,110,2013-08-28 17:35:00
10:55 AM,96.8,60.8,30,29.89,10.0,ESE,9.2,16.1,N/A,,Clear,110,2013-08-28 17:55:00
11:15 AM,98.6,60.8,29,29.88,10.0,ESE,12.7,19.6,N/A,,Clear,120,2013-08-28 18:15:00
11:35 AM,96.8,60.8,30,29.88,10.0,East,9.2,-,N/A,,Clear,90,2013-08-28 18:35:00
11:55 AM,98.6,60.8,29,29.87,10.0,SSE,10.4,16.1,N/A,,Clear,160,2013-08-28 18:55:00
12:15 PM,98.6,60.8,29,29.87,10.0,ESE,9.2,-,N/A,,Clear,120,2013-08-28 19:15:00
12:35 PM,100.4,60.8,27,29.86,10.0,South,8.1,-,N/A,,Clear,190,2013-08-28 19:35:00
12:55 PM,100.4,60.8,27,29.86,10.0,South,8.1,17.3,N/A,,Clear,190,2013-08-28 19:55:00
1:15 PM,100.4,59.0,25,29.85,10.0,Calm,Calm,-,N/A,,Clear,0,2013-08-28 20:15:00
1:35 PM,100.4,60.8,27,29.84,10.0,SW,6.9,-,N/A,,Clear,220,2013-08-28 20:35:00
1:55 PM,100.4,60.8,27,29.84,10.0,WSW,10.4,-,N/A,,Clear,250,2013-08-28 20:55:00
2:15 PM,100.4,60.8,27,29.82,10.0,SSE,11.5,-,N/A,,Clear,150,2013-08-28 21:15:00
2:35 PM,100.4,59.0,25,29.82,10.0,SSE,8.1,-,N/A,,Clear,160,2013-08-28 21:35:00
2:55 PM,100.4,59.0,25,29.81,10.0,Calm,Calm,-,N/A,,Clear,0,2013-08-28 21:55:00
3:15 PM,100.4,59.0,25,29.80,10.0,SSE,5.8,-,N/A,,Clear,160,2013-08-28 22:15:00
3:35 PM,100.4,59.0,25,29.80,10.0,SE,4.6,-,N/A,,Clear,140,2013-08-28 22:35:00
3:55 PM,100.4,59.0,25,29.80,10.0,Calm,Calm,-,N/A,,Clear,0,2013-08-28 22:55:00
4:15 PM,102.2,59.0,24,29.80,10.0,SE,8.1,-,N/A,,Clear,130,2013-08-28 23:15:00
4:35 PM,102.2,62.6,27,29.79,10.0,SSE,13.8,20.7,N/A,,Scattered Clouds,150,2013-08-28 23:35:00
4:55 PM,100.4,62.6,29,29.79,10.0,SSE,13.8,-,N/A,,Partly Cloudy,160,2013-08-28 23:55:00
5:15 PM,100.4,60.8,27,29.80,10.0,South,8.1,-,N/A,,Clear,180,2013-08-29 00:15:00
5:35 PM,100.4,62.6,29,29.80,10.0,South,12.7,17.3,N/A,,Scattered Clouds,190,2013-08-29 00:35:00
5:55 PM,98.6,64.4,32,29.81,10.0,South,10.4,-,N/A,,Scattered Clouds,180,2013-08-29 00:55:00
6:15 PM,96.8,62.6,32,29.83,10.0,East,8.1,-,N/A,,Scattered Clouds,100,2013-08-29 01:15:00
6:35 PM,95.0,64.4,36,29.86,10.0,SSE,18.4,24.2,N/A,,Partly Cloudy,150,2013-08-29 01:35:00
6:55 PM,91.4,64.4,41,29.87,10.0,South,16.1,21.9,N/A,,Partly Cloudy,170,2013-08-29 01:55:00
7:15 PM,91.4,62.6,38,29.88,10.0,South,18.4,24.2,N/A,,Clear,170,2013-08-29 02:15:00
7:35 PM,89.6,64.4,43,29.89,10.0,South,19.6,24.2,N/A,,Clear,170,2013-08-29 02:35:00
7:55 PM,87.8,66.2,49,29.89,10.0,SSW,17.3,24.2,N/A,,Clear,210,2013-08-29 02:55:00
8:15 PM,86.0,64.4,48,29.90,10.0,SSW,17.3,23.0,N/A,,Clear,210,2013-08-29 03:15:00
8:35 PM,86.0,64.4,48,29.91,10.0,SSW,13.8,-,N/A,,Clear,210,2013-08-29 03:35:00
8:55 PM,84.2,64.4,51,29.93,10.0,South,12.7,-,N/A,,Clear,190,2013-08-29 03:55:00
9:15 PM,84.2,66.2,55,29.94,10.0,South,10.4,-,N/A,,Clear,190,2013-08-29 04:15:00
9:35 PM,84.2,66.2,55,29.94,10.0,South,12.7,-,N/A,,Clear,170,2013-08-29 04:35:00
9:55 PM,84.2,66.2,55,29.95,10.0,South,11.5,-,N/A,,Clear,170,2013-08-29 04:55:00
10:15 PM,84.2,66.2,55,29.97,10.0,South,12.7,-,N/A,,Clear,180,2013-08-29 05:15:00
10:35 PM,84.2,66.2,55,29.98,10.0,SSW,6.9,-,N/A,,Partly Cloudy,200,2013-08-29 05:35:00
10:55 PM,82.4,68.0,62,29.99,10.0,SW,9.2,-,N/A,,Partly Cloudy,220,2013-08-29 05:55:00
11:15 PM,82.4,68.0,62,29.98,10.0,South,6.9,-,N/A,,Clear,180,2013-08-29 06:15:00
11:35 PM,82.4,66.2,58,29.98,10.0,South,8.1,-,N/A,,Clear,170,2013-08-29 06:35:00
11:55 PM,82.4,66.2,58,29.98,10.0,South,6.9,-,N/A,,Clear,190,2013-08-29 06:55:00